Time,TemperatureF,DewpointF,PressureIn,WindDirection,WindDirectionDegrees,WindSpeedMPH,WindSpeedGustMPH,Humidity,HourlyPrecipIn,Conditions,Clouds,dailyrainin,SolarRadiationWatts/m^2,SoftwareType,DateUTC
2013-05-02 00:01:00,65.4,58.7,30.01,ESE,119,1.0,1.0,79,0.00,,,0.00,0,Wunderground v.1.15,2013-05-01 22:01:00,
2013-05-02 00:06:00,65.3,59.0,30.01,ESE,120,0.0,1.0,80,0.00,,,0.00,0,Wunderground v.1.15,2013-05-01 22:06:00,
2013-05-02 00:11:00,65.4,59.1,30.01,SE,132,1.0,1.0,80,0.00,,,0.00,0,Wunderground v.1.15,2013-05-01 22:11:00,
2013-05-02 00:21:00,64.9,59.3,30.01,SSE,153,1.0,1.0,82,0.00,,,0.00,0,Wunderground v.1.15,2013-05-01 22:21:00,
2013-05-02 00:26:00,64.9,59.6,30.01,ENE,57,0.0,4.0,83,0.00,,,0.00,0,Wunderground v.1.15,2013-05-01 22:26:00,
2013-05-02 00:36:00,64.8,59.5,30.00,ENE,69,4.0,4.0,83,0.00,,,0.01,0,Wunderground v.1.15,2013-05-01 22:36:00,
2013-05-02 00:41:00,64.6,59.7,30.00,ENE,59,3.0,3.0,84,0.00,,,0.01,0,Wunderground v.1.15,2013-05-01 22:41:00,
2013-05-02 00:46:00,64.6,60.0,30.00,East,85,2.0,3.0,85,0.00,,,0.01,0,Wunderground v.1.15,2013-05-01 22:46:00,
2013-05-02 00:51:00,64.7,60.1,30.00,ENE,78,2.0,2.0,85,0.00,,,0.01,0,Wunderground v.1.15,2013-05-01 22:51:00,
2013-05-02 00:56:00,64.7,60.1,30.00,ENE,78,0.0,2.0,85,0.00,,,0.01,0,Wunderground v.1.15,2013-05-01 22:56:00,
2013-05-02 01:06:00,64.5,59.9,30.00,ENE,78,0.0,0.0,85,0.00,,,0.01,0,Wunderground v.1.15,2013-05-01 23:06:00,
2013-05-02 01:16:00,64.7,60.1,30.00,ENE,76,1.0,2.0,85,0.00,,,0.01,0,Wunderground v.1.15,2013-05-01 23:16:00,
2013-05-02 01:21:00,64.7,59.8,29.99,ENE,66,2.0,2.0,84,0.00,,,0.01,0,Wunderground v.1.15,2013-05-01 23:21:00,
2013-05-02 01:26:00,64.8,59.9,29.98,ENE,62,2.0,2.0,84,0.00,,,0.01,0,Wunderground v.1.15,2013-05-01 23:26:00,
2013-05-02 01:31:00,65.0,60.0,29.98,East,80,2.0,3.0,84,0.00,,,0.01,0,Wunderground v.1.15,2013-05-01 23:31:00,
2013-05-02 01:41:00,65.2,59.9,29.98,ENE,65,2.0,2.0,83,0.00,,,0.01,0,Wunderground v.1.15,2013-05-01 23:41:00,
2013-05-02 01:46:00,64.9,59.6,29.97,NW,313,2.0,2.0,83,0.00,,,0.01,0,Wunderground v.1.15,2013-05-01 23:46:00,
2013-05-02 01:51:00,64.9,59.6,29.97,NNW,346,2.0,2.0,83,0.00,,,0.01,0,Wunderground v.1.15,2013-05-01 23:51:00,
2013-05-02 02:01:00,65.0,59.7,29.97,NW,313,1.0,1.0,83,0.00,,,0.01,0,Wunderground v.1.15,2013-05-02 00:01:00,
2013-05-02 02:06:00,65.4,59.8,29.96,NNE,15,1.0,2.0,82,0.00,,,0.01,0,Wunderground v.1.15,2013-05-02 00:06:00,
2013-05-02 02:16:00,65.5,59.5,29.96,NNE,18,2.0,3.0,81,0.00,,,0.01,0,Wunderground v.1.15,2013-05-02 00:16:00,
2013-05-02 02:21:00,65.5,59.9,29.96,NNE,32,4.0,5.0,82,0.00,,,0.01,0,Wunderground v.1.15,2013-05-02 00:21:00,
2013-05-02 02:26:00,65.4,59.8,29.95,NNW,338,4.0,5.0,82,0.00,,,0.01,0,Wunderground v.1.15,2013-05-02 00:26:00,
2013-05-02 02:31:00,65.0,59.7,29.95,NNE,14,4.0,4.0,83,0.00,,,0.01,0,Wunderground v.1.15,2013-05-02 00:31:00,
2013-05-02 02:41:00,65.3,60.0,29.95,NNE,30,3.0,5.0,83,0.00,,,0.01,0,Wunderground v.1.15,2013-05-02 00:41:00,
2013-05-02 02:46:00,65.5,59.9,29.95,NNE,14,4.0,5.0,82,0.00,,,0.01,0,Wunderground v.1.15,2013-05-02 00:46:00,
2013-05-02 02:51:00,65.5,59.9,29.95,NNE,13,3.0,3.0,82,0.00,,,0.01,0,Wunderground v.1.15,2013-05-02 00:51:00,
2013-05-02 02:56:00,65.3,59.7,29.94,North,355,2.0,3.0,82,0.00,,,0.01,0,Wunderground v.1.15,2013-05-02 00:56:00,
2013-05-02 03:01:00,65.1,59.8,29.94,NNE,17,3.0,3.0,83,0.00,,,0.01,0,Wunderground v.1.15,2013-05-02 01:01:00,
2013-05-02 03:06:00,65.1,59.8,29.94,NE,49,3.0,3.0,83,0.00,,,0.01,0,Wunderground v.1.15,2013-05-02 01:06:00,
2013-05-02 03:11:00,65.1,59.8,29.95,NE,49,2.0,2.0,83,0.00,,,0.01,0,Wunderground v.1.15,2013-05-02 01:11:00,
2013-05-02 03:21:00,65.2,59.6,29.94,NW,313,2.0,5.0,82,0.00,,,0.01,0,Wunderground v.1.15,2013-05-02 01:21:00,
2013-05-02 03:31:00,65.1,59.5,29.93,NW,323,5.0,5.0,82,0.00,,,0.01,0,Wunderground v.1.15,2013-05-02 01:31:00,
2013-05-02 03:36:00,65.0,59.7,29.94,NW,324,4.0,5.0,83,0.00,,,0.01,0,Wunderground v.1.15,2013-05-02 01:36:00,
2013-05-02 03:41:00,65.0,59.7,29.95,East,95,1.0,1.0,83,0.00,,,0.01,0,Wunderground v.1.15,2013-05-02 01:41:00,
2013-05-02 03:46:00,65.0,59.7,29.96,SSE,164,1.0,5.0,83,0.00,,,0.01,0,Wunderground v.1.15,2013-05-02 01:46:00,
2013-05-02 03:51:00,64.8,59.9,29.97,SSE,153,2.0,2.0,84,0.00,,,0.01,0,Wunderground v.1.15,2013-05-02 01:51:00,
2013-05-02 04:01:00,64.5,59.9,29.97,SE,138,2.0,2.0,85,0.00,,,0.01,0,Wunderground v.1.15,2013-05-02 02:01:00,
2013-05-02 04:06:00,64.4,60.1,29.97,SSE,157,2.0,5.0,86,0.00,,,0.01,0,Wunderground v.1.15,2013-05-02 02:06:00,
2013-05-02 04:11:00,64.1,59.8,29.98,SSE,157,3.0,3.0,86,0.00,,,0.01,0,Wunderground v.1.15,2013-05-02 02:11:00,
2013-05-02 04:16:00,63.9,60.0,29.98,South,169,4.0,7.0,87,0.00,,,0.01,0,Wunderground v.1.15,2013-05-02 02:16:00,
2013-05-02 04:21:00,63.6,60.0,29.99,SSE,161,5.0,7.0,88,0.00,,,0.02,0,Wunderground v.1.15,2013-05-02 02:21:00,
2013-05-02 04:26:00,63.5,59.9,29.99,SSE,163,5.0,7.0,88,0.16,,,0.02,0,Wunderground v.1.15,2013-05-02 02:26:00,
2013-05-02 04:36:00,63.1,59.8,29.99,SE,143,6.0,7.0,89,0.09,,,0.03,0,Wunderground v.1.15,2013-05-02 02:36:00,
2013-05-02 04:46:00,63.0,60.3,29.98,SSE,160,4.0,6.0,91,0.10,,,0.05,0,Wunderground v.1.15,2013-05-02 02:46:00,
2013-05-02 04:51:00,62.9,60.2,29.98,SE,140,4.0,4.0,91,0.10,,,0.05,0,Wunderground v.1.15,2013-05-02 02:51:00,
2013-05-02 04:56:00,62.9,60.2,29.98,SSE,149,4.0,4.0,91,0.13,,,0.06,0,Wunderground v.1.15,2013-05-02 02:56:00,
2013-05-02 05:01:00,62.8,60.4,29.98,SSE,160,4.0,4.0,92,0.16,,,0.07,0,Wunderground v.1.15,2013-05-02 03:01:00,
2013-05-02 05:11:00,62.8,60.4,29.97,ENE,69,1.0,3.0,92,0.12,,,0.09,0,Wunderground v.1.15,2013-05-02 03:11:00,
2013-05-02 05:16:00,62.6,60.5,29.97,SSE,156,1.0,3.0,93,0.08,,,0.09,0,Wunderground v.1.15,2013-05-02 03:16:00,
2013-05-02 05:26:00,62.5,60.4,29.97,ENE,59,1.0,4.0,93,0.07,,,0.10,0,Wunderground v.1.15,2013-05-02 03:26:00,
2013-05-02 05:31:00,62.4,60.3,29.96,ENE,63,2.0,3.0,93,0.07,,,0.10,0,Wunderground v.1.15,2013-05-02 03:31:00,
2013-05-02 05:36:00,62.4,60.7,29.96,East,80,3.0,4.0,94,0.06,,,0.10,0,Wunderground v.1.15,2013-05-02 03:36:00,
2013-05-02 05:41:00,62.4,60.7,29.96,ENE,78,2.0,2.0,94,0.05,,,0.11,0,Wunderground v.1.15,2013-05-02 03:41:00,
2013-05-02 05:46:00,62.4,60.7,29.96,NE,53,2.0,3.0,94,0.09,,,0.12,0,Wunderground v.1.15,2013-05-02 03:46:00,
2013-05-02 05:51:00,62.3,60.6,29.96,South,181,2.0,2.0,94,0.08,,,0.12,0,Wunderground v.1.15,2013-05-02 03:51:00,
2013-05-02 05:56:00,62.1,60.4,29.96,ESE,115,1.0,2.0,94,0.07,,,0.13,0,Wunderground v.1.15,2013-05-02 03:56:00,
2013-05-02 06:01:00,62.2,60.8,29.96,ENE,65,1.0,3.0,95,0.07,,,0.13,0,Wunderground v.1.15,2013-05-02 04:01:00,
2013-05-02 06:06:00,62.2,60.8,29.97,ENE,74,1.0,3.0,95,0.05,,,0.13,0,Wunderground v.1.15,2013-05-02 04:06:00,
2013-05-02 06:11:00,62.1,60.4,29.96,NE,54,1.0,2.0,94,0.05,,,0.13,0,Wunderground v.1.15,2013-05-02 04:11:00,
2013-05-02 06:16:00,62.2,60.8,29.97,ENE,70,1.0,2.0,95,0.10,,,0.14,0,Wunderground v.1.15,2013-05-02 04:16:00,
2013-05-02 06:21:00,62.2,60.8,29.97,ENE,58,1.0,4.0,95,0.11,,,0.15,0,Wunderground v.1.15,2013-05-02 04:21:00,
2013-05-02 06:26:00,62.1,60.4,29.96,NE,53,3.0,5.0,94,0.11,,,0.16,0,Wunderground v.1.15,2013-05-02 04:26:00,
2013-05-02 06:31:00,62.1,60.4,29.96,ENE,65,3.0,4.0,94,0.07,,,0.16,0,Wunderground v.1.15,2013-05-02 04:31:00,
2013-05-02 06:36:00,62.0,60.3,29.96,ENE,60,3.0,4.0,94,0.04,,,0.16,0,Wunderground v.1.15,2013-05-02 04:36:00,
2013-05-02 06:46:00,62.0,60.3,29.96,NE,53,4.0,5.0,94,0.00,,,0.17,5,Wunderground v.1.15,2013-05-02 04:46:00,
2013-05-02 06:56:00,61.9,60.2,29.96,NE,43,5.0,5.0,94,0.06,,,0.17,7,Wunderground v.1.15,2013-05-02 04:56:00,
2013-05-02 07:01:00,61.9,60.2,29.96,NE,46,4.0,4.0,94,0.04,,,0.17,9,Wunderground v.1.15,2013-05-02 05:01:00,
2013-05-02 07:06:00,61.9,60.2,29.96,NE,36,4.0,4.0,94,0.00,,,0.17,7,Wunderground v.1.15,2013-05-02 05:06:00,
2013-05-02 07:11:00,61.9,60.2,29.96,NE,44,3.0,3.0,94,0.00,,,0.18,9,Wunderground v.1.15,2013-05-02 05:11:00,
2013-05-02 07:21:00,62.0,60.3,29.96,East,79,4.0,4.0,94,0.00,,,0.18,11,Wunderground v.1.15,2013-05-02 05:21:00,
2013-05-02 07:26:00,62.1,60.1,29.96,NE,42,4.0,4.0,93,0.00,,,0.18,12,Wunderground v.1.15,2013-05-02 05:26:00,
2013-05-02 07:31:00,62.1,60.1,29.96,ENE,64,5.0,5.0,93,0.00,,,0.19,11,Wunderground v.1.15,2013-05-02 05:31:00,
2013-05-02 07:36:00,62.1,60.1,29.96,NE,46,5.0,7.0,93,0.00,,,0.19,12,Wunderground v.1.15,2013-05-02 05:36:00,
2013-05-02 07:41:00,62.1,60.1,29.96,NE,49,5.0,9.0,93,0.00,,,0.19,12,Wunderground v.1.15,2013-05-02 05:41:00,
2013-05-02 07:46:00,62.1,60.1,29.96,NNE,25,7.0,9.0,93,0.00,,,0.19,12,Wunderground v.1.15,2013-05-02 05:46:00,
2013-05-02 07:51:00,62.1,60.1,29.96,NNE,19,5.0,5.0,93,0.00,,,0.19,12,Wunderground v.1.15,2013-05-02 05:51:00,
2013-05-02 08:01:00,62.0,60.3,29.96,NNE,26,3.0,5.0,94,0.00,,,0.19,53,Wunderground v.1.15,2013-05-02 06:01:00,
2013-05-02 08:06:00,62.1,60.4,29.96,NE,40,4.0,6.0,94,0.00,,,0.19,63,Wunderground v.1.15,2013-05-02 06:06:00,
2013-05-02 08:11:00,62.2,60.5,29.96,ENE,75,4.0,4.0,94,0.00,,,0.19,49,Wunderground v.1.15,2013-05-02 06:11:00,
2013-05-02 08:16:00,62.3,60.6,29.96,ENE,63,5.0,5.0,94,0.00,,,0.19,42,Wunderground v.1.15,2013-05-02 06:16:00,
2013-05-02 08:21:00,62.3,60.2,29.96,ENE,67,5.0,5.0,93,0.00,,,0.19,51,Wunderground v.1.15,2013-05-02 06:21:00,
2013-05-02 08:26:00,62.4,60.3,29.97,NNE,21,5.0,5.0,93,0.00,,,0.19,42,Wunderground v.1.15,2013-05-02 06:26:00,
2013-05-02 08:36:00,62.3,60.6,29.96,North,355,4.0,8.0,94,0.00,,,0.19,54,Wunderground v.1.15,2013-05-02 06:36:00,
2013-05-02 08:41:00,62.3,60.6,29.96,NNE,32,4.0,5.0,94,0.00,,,0.19,69,Wunderground v.1.15,2013-05-02 06:41:00,
2013-05-02 08:46:00,62.4,60.7,29.97,NE,51,4.0,5.0,94,0.00,,,0.19,88,Wunderground v.1.15,2013-05-02 06:46:00,
2013-05-02 08:51:00,62.6,60.8,29.97,North,5,2.0,2.0,94,0.00,,,0.19,91,Wunderground v.1.15,2013-05-02 06:51:00,
2013-05-02 08:56:00,62.7,60.9,29.97,North,360,1.0,2.0,94,0.00,,,0.19,90,Wunderground v.1.15,2013-05-02 06:56:00,
2013-05-02 09:01:00,62.8,61.0,29.97,NNW,346,2.0,3.0,94,0.00,,,0.19,97,Wunderground v.1.15,2013-05-02 07:01:00,
2013-05-02 09:06:00,62.9,61.1,29.97,NNW,340,2.0,4.0,94,0.00,,,0.19,139,Wunderground v.1.15,2013-05-02 07:06:00,
2013-05-02 09:11:00,62.9,61.1,29.97,NNW,334,3.0,3.0,94,0.00,,,0.19,134,Wunderground v.1.15,2013-05-02 07:11:00,
2013-05-02 09:16:00,63.1,61.3,29.97,North,360,3.0,5.0,94,0.00,,,0.19,128,Wunderground v.1.15,2013-05-02 07:16:00,
2013-05-02 09:26:00,63.4,61.3,29.96,North,360,3.0,4.0,93,0.00,,,0.19,160,Wunderground v.1.15,2013-05-02 07:26:00,
2013-05-02 09:31:00,63.5,61.4,29.96,NNW,332,3.0,4.0,93,0.00,,,0.19,141,Wunderground v.1.15,2013-05-02 07:31:00,
2013-05-02 09:36:00,63.6,61.8,29.96,NNW,339,4.0,6.0,94,0.00,,,0.19,135,Wunderground v.1.15,2013-05-02 07:36:00,
2013-05-02 09:41:00,63.7,61.9,29.96,NNW,340,4.0,4.0,94,0.00,,,0.19,104,Wunderground v.1.15,2013-05-02 07:41:00,
2013-05-02 09:46:00,63.5,61.4,29.96,NNW,340,5.0,5.0,93,0.00,,,0.19,83,Wunderground v.1.15,2013-05-02 07:46:00,
2013-05-02 09:51:00,63.5,61.4,29.96,NNW,348,4.0,4.0,93,0.00,,,0.19,72,Wunderground v.1.15,2013-05-02 07:51:00,
2013-05-02 10:01:00,63.5,61.4,29.96,ENE,59,2.0,3.0,93,0.00,,,0.19,70,Wunderground v.1.15,2013-05-02 08:01:00,
2013-05-02 10:06:00,63.9,61.8,29.96,ENE,59,1.0,4.0,93,0.00,,,0.19,67,Wunderground v.1.15,2013-05-02 08:06:00,
2013-05-02 10:11:00,63.7,61.3,29.96,NE,38,1.0,3.0,92,0.00,,,0.19,72,Wunderground v.1.15,2013-05-02 08:11:00,
2013-05-02 10:21:00,63.7,61.3,29.96,ENE,57,3.0,3.0,92,0.00,,,0.19,58,Wunderground v.1.15,2013-05-02 08:21:00,
2013-05-02 10:26:00,63.7,61.3,29.96,NNE,24,3.0,6.0,92,0.00,,,0.19,56,Wunderground v.1.15,2013-05-02 08:26:00,
2013-05-02 10:36:00,63.7,61.3,29.96,North,9,3.0,5.0,92,0.00,,,0.19,63,Wunderground v.1.15,2013-05-02 08:36:00,
2013-05-02 10:41:00,63.6,61.5,29.95,NNE,30,3.0,3.0,93,0.00,,,0.19,76,Wunderground v.1.15,2013-05-02 08:41:00,
2013-05-02 10:46:00,63.7,61.6,29.95,NE,41,4.0,4.0,93,0.00,,,0.19,81,Wunderground v.1.15,2013-05-02 08:46:00,
2013-05-02 10:51:00,63.7,61.6,29.95,ENE,61,4.0,6.0,93,0.00,,,0.19,100,Wunderground v.1.15,2013-05-02 08:51:00,
2013-05-02 10:56:00,63.8,61.4,29.95,ENE,57,5.0,7.0,92,0.00,,,0.19,105,Wunderground v.1.15,2013-05-02 08:56:00,
2013-05-02 11:01:00,63.9,61.5,29.95,ENE,58,6.0,6.0,92,0.00,,,0.19,104,Wunderground v.1.15,2013-05-02 09:01:00,
2013-05-02 11:11:00,63.9,61.5,29.94,NE,42,4.0,6.0,92,0.00,,,0.19,111,Wunderground v.1.15,2013-05-02 09:11:00,
2013-05-02 11:16:00,64.0,61.3,29.94,East,83,5.0,6.0,91,0.00,,,0.19,118,Wunderground v.1.15,2013-05-02 09:16:00,
2013-05-02 11:21:00,64.1,61.4,29.95,East,84,6.0,6.0,91,0.00,,,0.19,128,Wunderground v.1.15,2013-05-02 09:21:00,
2013-05-02 11:26:00,64.3,61.3,29.95,ENE,57,4.0,6.0,90,0.00,,,0.19,123,Wunderground v.1.15,2013-05-02 09:26:00,
2013-05-02 11:31:00,64.3,61.3,29.95,North,5,3.0,3.0,90,0.00,,,0.19,120,Wunderground v.1.15,2013-05-02 09:31:00,
2013-05-02 11:36:00,64.4,61.4,29.95,East,89,3.0,4.0,90,0.00,,,0.19,130,Wunderground v.1.15,2013-05-02 09:36:00,
2013-05-02 11:41:00,64.7,61.7,29.95,East,92,2.0,2.0,90,0.00,,,0.19,149,Wunderground v.1.15,2013-05-02 09:41:00,
2013-05-02 11:51:00,64.9,61.9,29.95,ENE,73,0.0,1.0,90,0.00,,,0.19,169,Wunderground v.1.15,2013-05-02 09:51:00,
2013-05-02 11:56:00,64.9,61.9,29.95,ENE,61,2.0,3.0,90,0.00,,,0.19,195,Wunderground v.1.15,2013-05-02 09:56:00,
2013-05-02 12:01:00,65.0,62.0,29.95,ENE,63,4.0,4.0,90,0.00,,,0.19,227,Wunderground v.1.15,2013-05-02 10:01:00,
2013-05-02 12:06:00,65.1,62.1,29.94,East,80,4.0,4.0,90,0.00,,,0.19,258,Wunderground v.1.15,2013-05-02 10:06:00,
2013-05-02 12:11:00,65.4,62.4,29.94,ENE,59,4.0,4.0,90,0.00,,,0.19,276,Wunderground v.1.15,2013-05-02 10:11:00,
2013-05-02 12:16:00,65.9,62.6,29.94,NE,42,3.0,4.0,89,0.00,,,0.19,295,Wunderground v.1.15,2013-05-02 10:16:00,
2013-05-02 12:21:00,66.2,62.5,29.94,ENE,61,2.0,2.0,88,0.00,,,0.19,302,Wunderground v.1.15,2013-05-02 10:21:00,
2013-05-02 12:31:00,66.6,62.6,29.95,North,360,0.0,2.0,87,0.00,,,0.19,346,Wunderground v.1.15,2013-05-02 10:31:00,
2013-05-02 12:36:00,66.5,62.2,29.95,NNE,17,2.0,4.0,86,0.00,,,0.19,348,Wunderground v.1.15,2013-05-02 10:36:00,
2013-05-02 12:41:00,66.8,62.8,29.95,NNW,330,4.0,4.0,87,0.00,,,0.19,350,Wunderground v.1.15,2013-05-02 10:41:00,
2013-05-02 12:46:00,66.9,62.6,29.95,NW,308,4.0,9.0,86,0.00,,,0.19,279,Wunderground v.1.15,2013-05-02 10:46:00,
2013-05-02 12:51:00,66.8,62.1,29.95,NNW,331,5.0,5.0,85,0.00,,,0.19,315,Wunderground v.1.15,2013-05-02 10:51:00,
2013-05-02 12:56:00,67.2,62.5,29.95,North,11,4.0,5.0,85,0.00,,,0.19,302,Wunderground v.1.15,2013-05-02 10:56:00,
2013-05-02 13:01:00,67.2,61.9,29.95,North,351,4.0,5.0,83,0.00,,,0.19,343,Wunderground v.1.15,2013-05-02 11:01:00,
2013-05-02 13:11:00,67.6,62.3,29.95,NW,317,4.0,4.0,83,0.00,,,0.19,334,Wunderground v.1.15,2013-05-02 11:11:00,
2013-05-02 13:16:00,67.7,61.7,29.95,NNW,340,4.0,4.0,81,0.00,,,0.19,420,Wunderground v.1.15,2013-05-02 11:16:00,
2013-05-02 13:21:00,68.3,62.9,29.95,NW,315,3.0,3.0,83,0.00,,,0.19,392,Wunderground v.1.15,2013-05-02 11:21:00,
2013-05-02 13:26:00,68.4,62.7,29.95,WNW,287,3.0,3.0,82,0.00,,,0.19,431,Wunderground v.1.15,2013-05-02 11:26:00,
2013-05-02 13:31:00,68.3,62.2,29.94,NNE,15,3.0,3.0,81,0.00,,,0.19,446,Wunderground v.1.15,2013-05-02 11:31:00,
2013-05-02 13:36:00,68.9,62.5,29.94,WNW,300,1.0,3.0,80,0.00,,,0.19,413,Wunderground v.1.15,2013-05-02 11:36:00,
2013-05-02 13:46:00,69.1,63.0,29.94,NNW,331,2.0,3.0,81,0.00,,,0.19,566,Wunderground v.1.15,2013-05-02 11:46:00,
2013-05-02 13:51:00,70.5,64.4,29.94,NW,321,2.0,2.0,81,0.00,,,0.19,1020,Wunderground v.1.15,2013-05-02 11:51:00,
2013-05-02 13:56:00,70.8,63.2,29.94,NW,321,2.0,4.0,77,0.00,,,0.19,963,Wunderground v.1.15,2013-05-02 11:56:00,
2013-05-02 14:01:00,70.5,62.9,29.94,NNE,24,2.0,3.0,77,0.00,,,0.19,830,Wunderground v.1.15,2013-05-02 12:01:00,
2013-05-02 14:06:00,70.6,63.4,29.94,WNW,300,3.0,3.0,78,0.00,,,0.19,360,Wunderground v.1.15,2013-05-02 12:06:00,
2013-05-02 14:11:00,70.5,62.6,29.94,NNW,327,3.0,4.0,76,0.00,,,0.19,445,Wunderground v.1.15,2013-05-02 12:11:00,
2013-05-02 14:21:00,70.7,63.5,29.94,West,275,6.0,6.0,78,0.00,,,0.19,991,Wunderground v.1.15,2013-05-02 12:21:00,
2013-05-02 14:26:00,71.2,63.6,29.93,SW,226,4.0,6.0,77,0.00,,,0.19,341,Wunderground v.1.15,2013-05-02 12:26:00,
2013-05-02 14:31:00,70.8,62.1,29.93,WSW,249,3.0,3.0,74,0.00,,,0.19,309,Wunderground v.1.15,2013-05-02 12:31:00,
2013-05-02 14:36:00,70.8,62.1,29.93,SW,225,3.0,3.0,74,0.00,,,0.19,424,Wunderground v.1.15,2013-05-02 12:36:00,
2013-05-02 14:41:00,72.0,63.3,29.93,WSW,250,2.0,4.0,74,0.00,,,0.19,926,Wunderground v.1.15,2013-05-02 12:41:00,
2013-05-02 14:46:00,72.3,62.8,29.93,West,270,2.0,4.0,72,0.00,,,0.19,789,Wunderground v.1.15,2013-05-02 12:46:00,
2013-05-02 14:56:00,72.8,62.0,29.93,SSW,211,5.0,7.0,69,0.00,,,0.19,754,Wunderground v.1.15,2013-05-02 12:56:00,
2013-05-02 15:01:00,72.7,61.9,29.93,West,281,5.0,9.0,69,0.00,,,0.19,766,Wunderground v.1.15,2013-05-02 13:01:00,
2013-05-02 15:06:00,72.1,63.4,29.93,West,277,6.0,12.0,74,0.00,,,0.19,812,Wunderground v.1.15,2013-05-02 13:06:00,
2013-05-02 15:11:00,71.6,63.6,29.93,WNW,298,9.0,10.0,76,0.00,,,0.19,802,Wunderground v.1.15,2013-05-02 13:11:00,
2013-05-02 15:16:00,71.6,63.6,29.93,NW,314,8.0,10.0,76,0.00,,,0.19,728,Wunderground v.1.15,2013-05-02 13:16:00,
2013-05-02 15:21:00,71.4,62.7,29.92,NNW,328,8.0,8.0,74,0.00,,,0.19,700,Wunderground v.1.15,2013-05-02 13:21:00,
2013-05-02 15:31:00,71.8,62.7,29.92,West,269,6.0,8.0,73,0.00,,,0.19,687,Wunderground v.1.15,2013-05-02 13:31:00,
2013-05-02 15:36:00,72.2,63.1,29.92,West,274,5.0,8.0,73,0.00,,,0.19,671,Wunderground v.1.15,2013-05-02 13:36:00,
2013-05-02 15:41:00,72.7,63.9,29.92,West,259,5.0,5.0,74,0.00,,,0.19,666,Wunderground v.1.15,2013-05-02 13:41:00,
2013-05-02 15:46:00,73.4,62.2,29.92,WSW,246,4.0,5.0,68,0.00,,,0.19,666,Wunderground v.1.15,2013-05-02 13:46:00,
2013-05-02 15:51:00,72.9,61.7,29.92,WSW,244,4.0,4.0,68,0.00,,,0.19,659,Wunderground v.1.15,2013-05-02 13:51:00,
2013-05-02 16:01:00,72.2,61.5,29.92,WNW,288,6.0,10.0,69,0.00,,,0.19,740,Wunderground v.1.15,2013-05-02 14:01:00,
2013-05-02 16:06:00,71.9,62.0,29.92,WNW,299,10.0,16.0,71,0.00,,,0.19,701,Wunderground v.1.15,2013-05-02 14:06:00,
2013-05-02 16:11:00,71.2,61.3,29.92,WNW,302,14.0,16.0,71,0.00,,,0.19,612,Wunderground v.1.15,2013-05-02 14:11:00,
2013-05-02 16:16:00,70.9,61.4,29.92,West,278,14.0,16.0,72,0.00,,,0.19,592,Wunderground v.1.15,2013-05-02 14:16:00,
2013-05-02 16:21:00,71.1,61.6,29.92,West,271,12.0,12.0,72,0.00,,,0.19,584,Wunderground v.1.15,2013-05-02 14:21:00,
2013-05-02 16:31:00,70.3,60.4,29.92,WSW,256,12.0,12.0,71,0.00,,,0.19,554,Wunderground v.1.15,2013-05-02 14:31:00,
2013-05-02 16:36:00,70.1,61.0,29.92,NNW,328,11.0,16.0,73,0.00,,,0.19,536,Wunderground v.1.15,2013-05-02 14:36:00,
2013-05-02 16:46:00,70.0,61.7,29.92,West,279,11.0,13.0,75,0.00,,,0.19,513,Wunderground v.1.15,2013-05-02 14:46:00,
2013-05-02 16:51:00,70.0,61.7,29.92,NW,323,9.0,9.0,75,0.00,,,0.19,501,Wunderground v.1.15,2013-05-02 14:51:00,
2013-05-02 16:56:00,69.8,61.5,29.92,WNW,286,10.0,10.0,75,0.00,,,0.19,490,Wunderground v.1.15,2013-05-02 14:56:00,
2013-05-02 17:06:00,70.0,60.9,29.92,West,265,10.0,12.0,73,0.00,,,0.19,457,Wunderground v.1.15,2013-05-02 15:06:00,
2013-05-02 17:11:00,70.1,60.7,29.92,WNW,290,10.0,10.0,72,0.00,,,0.19,441,Wunderground v.1.15,2013-05-02 15:11:00,
2013-05-02 17:16:00,70.3,60.8,29.92,NW,321,10.0,10.0,72,0.00,,,0.19,431,Wunderground v.1.15,2013-05-02 15:16:00,
2013-05-02 17:21:00,70.3,60.4,29.92,NW,317,10.0,12.0,71,0.00,,,0.19,420,Wunderground v.1.15,2013-05-02 15:21:00,
2013-05-02 17:26:00,70.5,60.6,29.92,WNW,300,10.0,12.0,71,0.00,,,0.19,404,Wunderground v.1.15,2013-05-02 15:26:00,
2013-05-02 17:31:00,70.4,59.7,29.92,West,269,10.0,10.0,69,0.00,,,0.19,387,Wunderground v.1.15,2013-05-02 15:31:00,
2013-05-02 17:36:00,70.5,59.8,29.92,WSW,251,8.0,10.0,69,0.00,,,0.19,371,Wunderground v.1.15,2013-05-02 15:36:00,
2013-05-02 17:46:00,71.0,59.5,29.91,West,273,7.0,8.0,67,0.00,,,0.19,348,Wunderground v.1.15,2013-05-02 15:46:00,
2013-05-02 17:51:00,70.9,60.2,29.91,NW,314,8.0,10.0,69,0.00,,,0.19,353,Wunderground v.1.15,2013-05-02 15:51:00,
2013-05-02 17:56:00,70.9,60.2,29.91,NW,315,10.0,10.0,69,0.00,,,0.19,329,Wunderground v.1.15,2013-05-02 15:56:00,
2013-05-02 18:01:00,71.2,59.7,29.91,NW,321,9.0,9.0,67,0.00,,,0.19,309,Wunderground v.1.15,2013-05-02 16:01:00,
2013-05-02 18:11:00,71.4,59.9,29.91,NW,324,7.0,7.0,67,0.00,,,0.19,272,Wunderground v.1.15,2013-05-02 16:11:00,
2013-05-02 18:16:00,71.7,59.7,29.91,NNW,343,6.0,11.0,66,0.00,,,0.19,257,Wunderground v.1.15,2013-05-02 16:16:00,
2013-05-02 18:21:00,71.5,59.5,29.91,NW,321,7.0,10.0,66,0.00,,,0.19,241,Wunderground v.1.15,2013-05-02 16:21:00,
2013-05-02 18:31:00,71.4,59.9,29.91,NW,312,6.0,6.0,67,0.00,,,0.19,216,Wunderground v.1.15,2013-05-02 16:31:00,
2013-05-02 18:36:00,71.5,60.0,29.91,NW,306,5.0,6.0,67,0.00,,,0.19,200,Wunderground v.1.15,2013-05-02 16:36:00,
2013-05-02 18:41:00,71.6,59.2,29.90,NW,319,5.0,8.0,65,0.00,,,0.19,183,Wunderground v.1.15,2013-05-02 16:41:00,
2013-05-02 18:46:00,71.5,58.7,29.90,NNW,341,5.0,8.0,64,0.00,,,0.19,165,Wunderground v.1.15,2013-05-02 16:46:00,
2013-05-02 18:51:00,71.7,58.9,29.90,NW,324,5.0,5.0,64,0.00,,,0.19,149,Wunderground v.1.15,2013-05-02 16:51:00,
2013-05-02 18:56:00,71.6,58.8,29.90,NNW,334,5.0,6.0,64,0.00,,,0.19,134,Wunderground v.1.15,2013-05-02 16:56:00,
2013-05-02 19:06:00,71.4,58.6,29.90,WNW,302,5.0,6.0,64,0.00,,,0.19,104,Wunderground v.1.15,2013-05-02 17:06:00,
2013-05-02 19:11:00,71.3,58.5,29.90,WNW,288,5.0,5.0,64,0.00,,,0.19,90,Wunderground v.1.15,2013-05-02 17:11:00,
2013-05-02 19:16:00,71.1,58.7,29.91,WNW,288,4.0,7.0,65,0.00,,,0.19,76,Wunderground v.1.15,2013-05-02 17:16:00,
2013-05-02 19:21:00,71.0,58.6,29.91,West,277,4.0,7.0,65,0.00,,,0.19,63,Wunderground v.1.15,2013-05-02 17:21:00,
2013-05-02 19:31:00,70.3,59.2,29.91,West,273,8.0,8.0,68,0.00,,,0.19,42,Wunderground v.1.15,2013-05-02 17:31:00,
2013-05-02 19:36:00,69.4,59.6,29.91,West,265,8.0,8.0,71,0.00,,,0.19,33,Wunderground v.1.15,2013-05-02 17:36:00,
2013-05-02 19:41:00,68.8,60.2,29.91,WNW,289,7.0,8.0,74,0.00,,,0.19,25,Wunderground v.1.15,2013-05-02 17:41:00,
2013-05-02 19:46:00,68.4,60.2,29.91,West,274,7.0,8.0,75,0.00,,,0.19,19,Wunderground v.1.15,2013-05-02 17:46:00,
2013-05-02 19:56:00,68.0,60.5,29.91,West,266,5.0,7.0,77,0.00,,,0.19,11,Wunderground v.1.15,2013-05-02 17:56:00,
2013-05-02 20:01:00,67.9,60.4,29.91,West,271,5.0,5.0,77,0.00,,,0.19,7,Wunderground v.1.15,2013-05-02 18:01:00,
2013-05-02 20:06:00,67.9,60.4,29.91,WNW,300,4.0,5.0,77,0.00,,,0.19,5,Wunderground v.1.15,2013-05-02 18:06:00,
2013-05-02 20:11:00,67.8,60.7,29.91,WNW,289,3.0,3.0,78,0.00,,,0.19,0,Wunderground v.1.15,2013-05-02 18:11:00,
2013-05-02 20:21:00,67.8,60.3,29.91,NNW,339,2.0,2.0,77,0.00,,,0.19,0,Wunderground v.1.15,2013-05-02 18:21:00,
2013-05-02 20:31:00,67.7,60.2,29.91,NNW,340,2.0,2.0,77,0.00,,,0.19,0,Wunderground v.1.15,2013-05-02 18:31:00,
2013-05-02 20:36:00,67.6,60.1,29.91,NNW,331,3.0,4.0,77,0.00,,,0.19,0,Wunderground v.1.15,2013-05-02 18:36:00,
2013-05-02 20:41:00,67.7,59.9,29.91,NNW,332,3.0,3.0,76,0.00,,,0.19,0,Wunderground v.1.15,2013-05-02 18:41:00,
2013-05-02 20:51:00,68.3,58.9,29.90,NE,42,3.0,3.0,72,0.00,,,0.19,0,Wunderground v.1.15,2013-05-02 18:51:00,
2013-05-02 20:56:00,68.6,59.2,29.90,ENE,65,3.0,3.0,72,0.00,,,0.19,0,Wunderground v.1.15,2013-05-02 18:56:00,
2013-05-02 21:01:00,68.6,58.8,29.90,NE,54,2.0,3.0,71,0.00,,,0.19,0,Wunderground v.1.15,2013-05-02 19:01:00,
2013-05-02 21:06:00,68.2,58.8,29.91,NE,56,2.0,3.0,72,0.00,,,0.19,0,Wunderground v.1.15,2013-05-02 19:06:00,
2013-05-02 21:11:00,67.5,58.5,29.91,North,360,2.0,4.0,73,0.00,,,0.19,0,Wunderground v.1.15,2013-05-02 19:11:00,
2013-05-02 21:21:00,67.4,58.4,29.91,NNW,332,3.0,4.0,73,0.00,,,0.19,0,Wunderground v.1.15,2013-05-02 19:21:00,
2013-05-02 21:26:00,67.3,58.3,29.92,NNW,347,4.0,5.0,73,0.00,,,0.19,0,Wunderground v.1.15,2013-05-02 19:26:00,
2013-05-02 21:31:00,67.2,57.9,29.92,NNW,343,6.0,8.0,72,0.00,,,0.19,0,Wunderground v.1.15,2013-05-02 19:31:00,
2013-05-02 21:36:00,67.1,58.2,29.92,North,360,8.0,8.0,73,0.00,,,0.19,0,Wunderground v.1.15,2013-05-02 19:36:00,
2013-05-02 21:46:00,66.9,58.0,29.92,NNW,331,5.0,11.0,73,0.00,,,0.19,0,Wunderground v.1.15,2013-05-02 19:46:00,
2013-05-02 21:51:00,66.8,57.9,29.92,NNW,340,6.0,10.0,73,0.00,,,0.19,0,Wunderground v.1.15,2013-05-02 19:51:00,
2013-05-02 21:56:00,66.7,57.4,29.92,NNW,346,6.0,10.0,72,0.00,,,0.19,0,Wunderground v.1.15,2013-05-02 19:56:00,
2013-05-02 22:01:00,66.6,57.3,29.92,North,5,5.0,5.0,72,0.00,,,0.19,0,Wunderground v.1.15,2013-05-02 20:01:00,
2013-05-02 22:06:00,66.5,57.2,29.92,North,360,5.0,5.0,72,0.00,,,0.19,0,Wunderground v.1.15,2013-05-02 20:06:00,
2013-05-02 22:16:00,66.3,57.4,29.92,NNE,12,4.0,5.0,73,0.00,,,0.19,0,Wunderground v.1.15,2013-05-02 20:16:00,
2013-05-02 22:21:00,66.4,57.9,29.92,NE,50,4.0,4.0,74,0.00,,,0.19,0,Wunderground v.1.15,2013-05-02 20:21:00,
2013-05-02 22:26:00,66.5,58.0,29.92,NNE,29,4.0,4.0,74,0.00,,,0.19,0,Wunderground v.1.15,2013-05-02 20:26:00,
2013-05-02 22:31:00,66.5,58.0,29.92,NNE,27,4.0,4.0,74,0.00,,,0.19,0,Wunderground v.1.15,2013-05-02 20:31:00,
2013-05-02 22:36:00,66.4,57.9,29.92,ENE,57,3.0,4.0,74,0.00,,,0.19,0,Wunderground v.1.15,2013-05-02 20:36:00,
2013-05-02 22:41:00,66.4,58.2,29.92,East,81,3.0,3.0,75,0.00,,,0.19,0,Wunderground v.1.15,2013-05-02 20:41:00,
2013-05-02 22:51:00,66.3,58.5,29.92,NE,52,5.0,5.0,76,0.00,,,0.19,0,Wunderground v.1.15,2013-05-02 20:51:00,
2013-05-02 22:56:00,66.3,58.5,29.92,ENE,63,5.0,5.0,76,0.00,,,0.19,0,Wunderground v.1.15,2013-05-02 20:56:00,
2013-05-02 23:01:00,66.1,58.3,29.92,NE,52,5.0,5.0,76,0.00,,,0.19,0,Wunderground v.1.15,2013-05-02 21:01:00,
2013-05-02 23:06:00,66.0,58.6,29.92,NNE,24,4.0,6.0,77,0.00,,,0.19,0,Wunderground v.1.15,2013-05-02 21:06:00,
2013-05-02 23:16:00,65.5,58.5,29.92,ENE,61,3.0,4.0,78,0.00,,,0.19,0,Wunderground v.1.15,2013-05-02 21:16:00,
2013-05-02 23:21:00,65.4,58.4,29.92,NE,48,3.0,4.0,78,0.00,,,0.19,0,Wunderground v.1.15,2013-05-02 21:21:00,
2013-05-02 23:31:00,64.9,58.2,29.92,NE,41,2.0,2.0,79,0.00,,,0.19,0,Wunderground v.1.15,2013-05-02 21:31:00,
2013-05-02 23:36:00,64.8,58.1,29.92,ENE,70,1.0,2.0,79,0.00,,,0.19,0,Wunderground v.1.15,2013-05-02 21:36:00,
2013-05-02 23:41:00,64.8,58.5,29.92,ENE,61,2.0,3.0,80,0.00,,,0.19,0,Wunderground v.1.15,2013-05-02 21:41:00,
2013-05-02 23:51:00,64.7,58.4,29.92,NE,38,3.0,3.0,80,0.00,,,0.19,0,Wunderground v.1.15,2013-05-02 21:51:00,
2013-05-02 23:56:00,64.6,58.3,29.92,NE,46,3.0,3.0,80,0.00,,,0.19,0,Wunderground v.1.15,2013-05-02 21:56:00,